Weather History for San Angelo, TX

Change the Weather History Date:

Thursday, October 4, 2012

  Actual Average Record
Temperature  
Mean Temperature 73 °F 70 °F  
Max Temperature 86 °F 82 °F 97 °F (1951)
Min Temperature 60 °F 57 °F 41 °F (1961)
Degree Days  
Heating Degree Days 0 1  
Month to date heating degree days 0 4  
Since 1 July heating degree days 2 13  
Cooling Degree Days 8 6  
Month to date cooling degree days 25 25  
Year to date cooling degree days 3069 2390  
Growing Degree Days 24 (Base 50)    
Moisture  
Dew Point 62 °F    
Average Humidity 68    
Maximum Humidity 87    
Minimum Humidity 48    
Precipitation  
Precipitation 0.00 in 0.09 in 1.40 in (1907)
Month to date precipitation 0.00 0.34  
Year to date precipitation 21.29 16.87  
Snow  
Snow 0.00 in 0.00 in 0.00 in (2002)
Month to date snowfall 0.0 0.0  
Since 1 July snowfall 0.0 0.0  
Snow Depth 0.00 in    
Sea Level Pressure  
Sea Level Pressure 30.02 in    
Wind  
Wind Speed 6 mph (NNW)    
Max Wind Speed 15 mph    
Max Gust Speed 25 mph    
Visibility 10 miles    
Events      
T = Trace of Precipitation, MM = Missing Value Source: NWS Daily Summary

Daily Weather History Graph

Daily Weather History Graph

Search for Another Location

Airport:

Trip Planner

Search our weather history database for the weather conditions in past years. The results will help you decide how hot, cold, wet, or windy it might be!

Date:

Astronomy

Oct. 04, 2012 Rise Set
Actual Time 7:37 AM CDT 7:22 PM CDT
Civil Twilight 7:13 AM CDT 7:46 PM CDT
Nautical Twilight 6:45 AM CDT 8:14 PM CDT
Astronomical Twilight 6:17 AM CDT 8:43 PM CDT
Moon 10:16 PM CDT (10/4) 11:39 AM CDT (10/4)
Length of Visible Light 12h 33m
Length of Day
11h 44m
Waning Gibbous, 82% of the Moon is Illuminated
Oct 4
Waning Gibbous
Oct 8
Last Quarter
Oct 15
New
Oct 21
First Quarter
Oct 29
Full

Hourly Weather History & Observations

Time (CDT) Temp. Heat Index Dew Point Humidity Pressure Visibility Wind Dir Wind Speed Gust Speed Precip Events Conditions
4:51 AM 66.9 °F - 60.1 °F 79% 29.91 in 10.0 mi South 5.8 mph - N/A   Clear
5:51 AM 66.9 °F - 61.0 °F 81% 29.92 in 10.0 mi South 3.5 mph - N/A   Clear
6:51 AM 64.9 °F - 60.1 °F 84% 29.94 in 10.0 mi Calm Calm - N/A   Clear
7:51 AM 62.1 °F - 57.9 °F 86% 29.96 in 5.0 mi Calm Calm - N/A   Clear
8:51 AM 66.9 °F - 63.0 °F 87% 29.98 in 8.0 mi Calm Calm - N/A   Clear
9:42 AM 71.6 °F - 64.4 °F 78% 30.06 in 10.0 mi Calm Calm - N/A   Mostly Cloudy
9:51 AM 72.0 °F - 66.0 °F 81% 30.01 in 10.0 mi NNW 3.5 mph - N/A   Mostly Cloudy
9:59 AM 71.6 °F - 66.2 °F 83% 30.06 in 10.0 mi Calm Calm - N/A   Scattered Clouds
11:33 AM 75.2 °F - 64.4 °F 69% 30.09 in 10.0 mi WNW 10.4 mph - N/A   Mostly Cloudy
11:42 AM 77.0 °F - 64.4 °F 65% 30.09 in 10.0 mi WNW 6.9 mph - N/A   Scattered Clouds
11:51 AM 78.1 °F - 64.9 °F 64% 30.03 in 10.0 mi WNW 5.8 mph - N/A   Partly Cloudy
12:51 PM 82.0 °F 83.4 °F 64.0 °F 54% 30.03 in 10.0 mi NNW 4.6 mph - N/A   Partly Cloudy
1:51 PM 82.0 °F 83.4 °F 64.0 °F 54% 30.03 in 10.0 mi Calm Calm - N/A   Scattered Clouds
2:51 PM 84.0 °F 84.9 °F 63.0 °F 49% 30.01 in 10.0 mi Variable 3.5 mph - N/A   Mostly Cloudy
3:51 PM 84.0 °F 84.9 °F 63.0 °F 49% 30.01 in 10.0 mi Variable 3.5 mph - N/A   Clear
5:51 PM 84.0 °F 85.4 °F 64.0 °F 51% 30.02 in 10.0 mi North 5.8 mph - N/A   Partly Cloudy
6:51 PM 79.0 °F - 62.1 °F 56% 30.04 in 10.0 mi North 11.5 mph - N/A   Clear
7:51 PM 73.9 °F - 59.0 °F 59% 30.06 in 10.0 mi North 10.4 mph - N/A   Clear
10:51 PM 64.0 °F - 55.9 °F 75% 30.11 in 10.0 mi ENE 5.8 mph - N/A   Clear
11:51 PM 62.1 °F - 55.0 °F 78% 30.11 in 10.0 mi ENE 4.6 mph - N/A   Clear